Kaneohe MCBH, HI

1:54 PM HST on April 24, 2018 (GMT -1000)
Kaneohe Bay Marine Corps Air Facility

Weather History for PHNG - September, 2013

Change the Weather History Date:

Saturday, September 14, 2013

  Actual Average Record
Temperature  
Mean Temperature 78 °F -  
Max Temperature 84 °F 81 °F 95 °F (2012)
Min Temperature 73 °F 72 °F 46 °F (1998)
Cooling Degree Days 14    
Growing Degree Days 28 (Base 50)    
Moisture  
Dew Point 71 °F    
Average Humidity 79    
Maximum Humidity 92    
Minimum Humidity 63    
Precipitation  
Precipitation 0.00 in - - ()
Sea Level Pressure  
Sea Level Pressure 29.91 in    
Wind  
Wind Speed 7 mph (NE)    
Max Wind Speed 9 mph    
Max Gust Speed 16 mph    
Visibility 10 miles    
Events      
Averages and records for this station are not official NWS values.
T = Trace of Precipitation, MM = Missing Value Source: NWS Daily Summary

Daily Weather History Graph

Daily Weather History Graph

Search for Another Location

Airport or City:

Astronomy

Sep. 14, 2013 Rise Set
Actual Time 6:17 AM HST 6:34 PM HST
Civil Twilight 5:55 AM HST 6:56 PM HST
Nautical Twilight 5:29 AM HST 7:22 PM HST
Astronomical Twilight 5:03 AM HST 7:48 PM HST
Moon 2:59 PM HST (9/14) 1:30 AM HST (9/14)
Length of Visible Light 13h 01m
Length of Day
12h 16m
Waxing Gibbous, 74% of the Moon is Illuminated
Sep 14
Waxing Gibbous
Sep 19
Full
Sep 26
Last Quarter
Oct 4
New
Oct 11
First Quarter

Hourly Weather History & Observations

Time (HST) Temp. Heat Index Dew Point Humidity Pressure Visibility Wind Dir Wind Speed Gust Speed Precip Events Conditions
12:57 AM 73.4 °F - 71.1 °F 92% 29.91 in 10.0 mi ENE 5.8 mph - N/A   Overcast
1:57 AM - - - N/A% 29.90 in 10.0 mi East 8.1 mph 16.1 mph N/A   Mostly Cloudy
2:57 AM 73.4 °F - 69.1 °F 86% 29.88 in 10.0 mi East 8.1 mph - N/A   Scattered Clouds
3:57 AM 73.4 °F - 69.1 °F 86% 29.87 in 10.0 mi ENE 6.9 mph - N/A   Scattered Clouds
4:57 AM 73.4 °F - 70.0 °F 89% 29.88 in 10.0 mi ENE 6.9 mph - N/A   Scattered Clouds
5:57 AM 73.4 °F - 69.1 °F 86% 29.89 in 10.0 mi NE 8.1 mph - N/A   Scattered Clouds
6:57 AM 75.2 °F - 70.0 °F 84% 29.90 in 10.0 mi ENE 4.6 mph - N/A   Scattered Clouds
7:57 AM 80.2 °F 83.7 °F 71.1 °F 73% 29.92 in 10.0 mi NE 5.8 mph - N/A   Partly Cloudy
8:57 AM 82.4 °F 87.4 °F 72.0 °F 71% 29.93 in 10.0 mi NE 8.1 mph - N/A   Mostly Cloudy
9:57 AM 82.4 °F 87.4 °F 72.0 °F 71% 29.93 in 10.0 mi ENE 9.2 mph - N/A   Mostly Cloudy
10:57 AM 82.4 °F 86.3 °F 70.0 °F 66% 29.93 in 10.0 mi NE 9.2 mph - N/A   Mostly Cloudy
11:57 AM 82.4 °F 86.7 °F 71.1 °F 68% 29.91 in 10.0 mi ENE 9.2 mph - N/A   Mostly Cloudy
12:57 PM 84.2 °F 89.3 °F 71.1 °F 65% 29.89 in 10.0 mi ENE 9.2 mph - N/A   Scattered Clouds
1:57 PM 83.8 °F 88.6 °F 71.1 °F 65% 29.88 in 10.0 mi ENE 6.9 mph - N/A   Scattered Clouds
2:57 PM 83.8 °F 89.2 °F 72.0 °F 67% 29.87 in 10.0 mi ENE 9.2 mph - N/A   Scattered Clouds
3:57 PM 84.7 °F 89.7 °F 71.1 °F 63% 29.88 in 10.0 mi NE 9.2 mph - N/A   Scattered Clouds
4:57 PM 81.7 °F 86.3 °F 72.0 °F 72% 29.89 in 10.0 mi NE 5.8 mph - N/A   Scattered Clouds
5:57 PM 80.2 °F 83.7 °F 71.1 °F 73% 29.90 in 10.0 mi NNE 5.8 mph - N/A   Scattered Clouds
6:57 PM 79.0 °F - 71.1 °F 77% 29.91 in 10.0 mi NE 8.1 mph - N/A   Scattered Clouds
7:57 PM 78.4 °F - 72.0 °F 80% 29.93 in 10.0 mi ENE 3.5 mph - N/A   Mostly Cloudy
8:57 PM 76.6 °F - 72.0 °F 85% 29.94 in 10.0 mi NE 4.6 mph - N/A   Mostly Cloudy
9:22 PM 77.0 °F - 73.4 °F 89% 29.96 in 6.2 mi ENE 4.6 mph - N/A   Mostly Cloudy
9:31 PM 77.0 °F - 73.4 °F 89% 29.96 in 6.2 mi NE 5.8 mph - N/A   Scattered Clouds
9:57 PM 76.6 °F - 73.0 °F 89% 29.94 in 10.0 mi NE 3.5 mph - N/A   Scattered Clouds
10:10 PM 77.0 °F - 71.6 °F 83% 29.96 in 6.2 mi NNE 4.6 mph - N/A   Mostly Cloudy
10:48 PM 77.0 °F - 71.6 °F 83% 29.95 in 6.2 mi ENE 4.6 mph - N/A   Partly Cloudy
10:57 PM 76.8 °F - 72.0 °F 85% 29.94 in 10.0 mi NE 5.8 mph - N/A   Scattered Clouds
11:57 PM 76.8 °F - 72.0 °F 85% 29.93 in 10.0 mi NNE 5.8 mph - N/A   Scattered Clouds